CAP D\\\'ESPOIR (AUT) current weather conditions

sailwx.info

Wind from 310 at 1 knots

Last reported at 2019-Jul-19 03:00 UTC.
Time now 2019-Jul-19 03:36 UTC

Location: N 48°25' W 064°19'.
View on Google Maps.

See reports from other nearby stations

  
Tides and Currents Weather Stations Pressure Air Temp Water Temp Dewpoint Dewpoint Depression Visibility Wind Speed Wind Dir Waves Ship Positions
date/time (UTC)wind fromknots sea level pressurealtimeterstation pressurevisibilityair tempwater tempwave heightnotes
2019-Jul-19 03:00 310 1
2019-Jul-19 02:00 320 1
2019-Jul-19 01:00 270 0
2019-Jul-19 00:00 360 1
2019-Jul-18 23:00 030 2
2019-Jul-18 22:00 030 5
2019-Jul-18 21:00 110 9
2019-Jul-18 20:00 110 14
2019-Jul-18 19:00 100 14
2019-Jul-18 18:00 210 6
2019-Jul-18 17:00 230 12
2019-Jul-18 16:00 230 12
2019-Jul-18 15:00 290 7
2019-Jul-18 14:00 310 9 gusting 15
2019-Jul-18 13:00 310 6
2019-Jul-18 12:00 290 6
2019-Jul-18 11:00 300 8
2019-Jul-18 10:00 300 6 gusting 15
2019-Jul-18 09:00 250 7
2019-Jul-18 08:00 260 6
2019-Jul-18 07:00 320 4
2019-Jul-18 06:00 330 8 gusting 15
2019-Jul-18 05:00 320 8 gusting 15
2019-Jul-18 04:00 330 6
2019-Jul-18 03:00 320 5
2019-Jul-18 02:00 320 8
2019-Jul-18 01:00 330 7
2019-Jul-18 00:00 060 2
2019-Jul-17 23:00 070 5
2019-Jul-17 22:00 080 14
2019-Jul-17 21:00 300 4
2019-Jul-17 20:00 230 8 gusting 14
2019-Jul-17 19:00 200 12
2019-Jul-17 18:00 250 7
2019-Jul-17 17:00 240 9 gusting 15
2019-Jul-17 16:00 240 9
2019-Jul-17 15:00 240 11
2019-Jul-17 14:00 250 8
2019-Jul-17 13:00 240 9
2019-Jul-17 12:00 230 9
2019-Jul-17 11:00 240 8
2019-Jul-17 10:00 230 6
2019-Jul-17 09:00 250 11 gusting 15
2019-Jul-17 08:00 240 13
2019-Jul-17 07:00 250 7
2019-Jul-17 06:00 250 7
2019-Jul-17 05:00 270 6
2019-Jul-17 04:00 240 4
2019-Jul-17 03:00 240 2